| time (UTC) | temp F | wind direction | speed knots | gust knots | rain 1hr in | rain 24hr in | rain mn in | humidity % | barometer mb |
| 20260901221033 | 49 | 0.0 | 0.0 | 0.00 | 0.00 | 0.00 | 99 | 1007.8 | |
| 20260901220028 | 49 | 0.0 | 0.0 | 0.00 | 0.00 | 0.00 | 99 | 1007.9 | |
| 20260901215024 | 48 | 0.0 | 0.0 | 0.00 | 0.00 | 0.00 | 99 | 1007.9 | |
| 20260901214020 | 48 | 151 | 0.9 | 0.9 | 0.00 | 0.00 | 0.00 | 99 | 1007.9 |
| 20260901213035 | 48 | 0.0 | 0.0 | 0.00 | 0.00 | 0.00 | 99 | 1007.9 | |
| 20260901212030 | 49 | 0.0 | 0.0 | 0.00 | 0.00 | 0.00 | 99 | 1007.7 | |
| 20260901211027 | 48 | 0.0 | 0.0 | 0.00 | 0.00 | 0.00 | 99 | 1007.8 | |
| 20260901210023 | 49 | 0.0 | 0.0 | 0.00 | 0.00 | 0.00 | 99 | 1007.8 | |
| 20260901205018 | 50 | 0.0 | 0.0 | 0.00 | 0.00 | 0.00 | 99 | 1007.8 | |
| 20260901204033 | 50 | 0.0 | 0.0 | 0.00 | 0.00 | 0.00 | 99 | 1007.7 | |
| 20260901203029 | 50 | 0.0 | 0.0 | 0.00 | 0.00 | 0.00 | 99 | 1007.8 | |
| 20260901202024 | 50 | 0.0 | 0.0 | 0.00 | 0.00 | 0.00 | 98 | 1007.9 | |
| 20260901201019 | 51 | 0.0 | 0.0 | 0.00 | 0.00 | 0.00 | 99 | 1007.9 | |
| 20260901200034 | 50 | 0.0 | 0.0 | 0.00 | 0.00 | 0.00 | 98 | 1008.0 | |
| 20260901195030 | 51 | 0.0 | 0.0 | 0.00 | 0.00 | 0.00 | 98 | 1007.9 | |
| 20260901194026 | 52 | 0.0 | 0.0 | 0.00 | 0.00 | 0.00 | 98 | 1008.0 | |
| 20260901193021 | 52 | 0.0 | 0.0 | 0.00 | 0.00 | 0.00 | 97 | 1007.9 | |
| 20260901192016 | 52 | 0.0 | 0.0 | 0.00 | 0.00 | 0.00 | 96 | 1007.9 | |
| 20260901191032 | 53 | 0.0 | 0.0 | 0.00 | 0.00 | 0.00 | 95 | 1008.0 | |
| 20260901190047 | 54 | 0.0 | 0.0 | 0.00 | 0.00 | 0.00 | 93 | 1008.0 | |
| 20260901185023 | 54 | 0.0 | 0.0 | 0.00 | 0.00 | 0.00 | 93 | 1008.0 | |
| 20260901184018 | 55 | 0.0 | 0.0 | 0.00 | 0.00 | 0.00 | 92 | 1008.0 | |
| 20260901183114 | 56 | 0.0 | 0.0 | 0.00 | 0.00 | 0.00 | 91 | 1007.8 | |
| 20260901182028 | 57 | 0.0 | 0.0 | 0.00 | 0.00 | 0.00 | 88 | 1007.8 | |
| 20260901181023 | 58 | 0.0 | 0.0 | 0.00 | 0.00 | 0.00 | 85 | 1007.8 | |
| 20260901180019 | 59 | 0.0 | 0.0 | 0.00 | 0.00 | 0.00 | 82 | 1007.6 | |
| 20260901175034 | 61 | 0.0 | 0.0 | 0.00 | 0.00 | 0.00 | 75 | 1007.7 | |
| 20260901174029 | 62 | 192 | 0.0 | 0.9 | 0.00 | 0.00 | 0.00 | 75 | 1007.5 |
| 20260901173025 | 65 | 0.0 | 0.0 | 0.00 | 0.00 | 0.00 | 73 | 1007.7 | |
| 20260901172020 | 69 | 0.0 | 0.0 | 0.00 | 0.00 | 0.00 | 63 | 1007.6 | |
| 20260901171017 | 70 | 0.0 | 0.0 | 0.00 | 0.00 | 0.00 | 61 | 1007.6 | |
| 20260901170032 | 70 | 0.0 | 0.0 | 0.00 | 0.00 | 0.00 | 59 | 1007.5 | |
| 20260901165027 | 70 | 188 | 0.0 | 2.6 | 0.00 | 0.00 | 0.00 | 57 | 1007.6 |
| 20260901164023 | 69 | 202 | 0.0 | 1.7 | 0.00 | 0.00 | 0.00 | 56 | 1007.6 |
| 20260901163018 | 70 | 210 | 0.9 | 2.6 | 0.00 | 0.00 | 0.00 | 55 | 1007.5 |
| 20260901162033 | 70 | 221 | 0.9 | 2.6 | 0.00 | 0.00 | 0.00 | 54 | 1007.6 |
| 20260901161028 | 70 | 214 | 0.9 | 2.6 | 0.00 | 0.00 | 0.00 | 53 | 1007.6 |
| 20260901160044 | 71 | 231 | 1.7 | 3.5 | 0.00 | 0.00 | 0.00 | 51 | 1007.6 |
| 20260901155019 | 71 | 246 | 2.6 | 5.2 | 0.00 | 0.00 | 0.00 | 49 | 1007.7 |
| 20260901154035 | 71 | 248 | 3.5 | 5.2 | 0.00 | 0.00 | 0.00 | 50 | 1007.7 |
| 20260901153055 | 71 | 224 | 2.6 | 3.5 | 0.00 | 0.00 | 0.00 | 50 | 1007.8 |
| 20260901152025 | 72 | 244 | 2.6 | 5.2 | 0.00 | 0.00 | 0.00 | 49 | 1007.6 |
| 20260901151020 | 71 | 221 | 1.7 | 5.2 | 0.00 | 0.00 | 0.00 | 48 | 1007.8 |
| 20260901150016 | 72 | 233 | 1.7 | 3.5 | 0.00 | 0.00 | 0.00 | 47 | 1007.8 |
| 20260901145051 | 72 | 227 | 2.6 | 5.2 | 0.00 | 0.00 | 0.00 | 48 | 1007.8 |
| 20260901144026 | 71 | 240 | 2.6 | 6.1 | 0.00 | 0.00 | 0.00 | 49 | 1007.9 |
| 20260901143021 | 72 | 234 | 2.6 | 5.2 | 0.00 | 0.00 | 0.00 | 46 | 1007.9 |
| 20260901142016 | 73 | 222 | 0.9 | 2.6 | 0.00 | 0.00 | 0.00 | 44 | 1007.9 |
| 20260901141031 | 72 | 234 | 2.6 | 6.1 | 0.00 | 0.00 | 0.00 | 45 | 1008.0 |
| 20260901140027 | 71 | 243 | 2.6 | 5.2 | 0.00 | 0.00 | 0.00 | 47 | 1008.1 |
| 20260901135023 | 71 | 250 | 2.6 | 7.0 | 0.00 | 0.00 | 0.00 | 46 | 1008.1 |
| 20260901134058 | 72 | 196 | 0.9 | 1.7 | 0.00 | 0.00 | 0.00 | 46 | 1008.2 |
| 20260901133032 | 72 | 202 | 0.9 | 1.7 | 0.00 | 0.00 | 0.00 | 47 | 1008.2 |
| 20260901132028 | 70 | 217 | 1.7 | 3.5 | 0.00 | 0.00 | 0.00 | 48 | 1008.2 |
| 20260901131024 | 70 | 220 | 0.9 | 2.6 | 0.00 | 0.00 | 0.00 | 46 | 1008.3 |
| 20260901130018 | 70 | 229 | 0.9 | 5.2 | 0.00 | 0.00 | 0.00 | 48 | 1008.2 |
| 20260901125033 | 70 | 216 | 0.9 | 2.6 | 0.00 | 0.00 | 0.00 | 50 | 1008.3 |
| 20260901124029 | 70 | 236 | 1.7 | 3.5 | 0.00 | 0.00 | 0.00 | 49 | 1008.3 |
| 20260901123024 | 70 | 187 | 0.9 | 2.6 | 0.00 | 0.00 | 0.00 | 51 | 1008.4 |
| 20260901122019 | 69 | 141 | 0.9 | 1.7 | 0.00 | 0.00 | 0.00 | 53 | 1008.4 |
| 20260901121054 | 68 | 160 | 0.9 | 3.5 | 0.00 | 0.00 | 0.00 | 54 | 1008.4 |
| 20260901120030 | 69 | 141 | 0.9 | 2.6 | 0.00 | 0.00 | 0.00 | 53 | 1008.4 |
| 20260901115104 | 68 | 192 | 0.9 | 1.7 | 0.00 | 0.00 | 0.00 | 53 | 1008.5 |
| 20260901114020 | 69 | 181 | 0.0 | 0.9 | 0.00 | 0.00 | 0.00 | 51 | 1008.6 |
| 20260901113034 | 67 | 234 | 1.7 | 3.5 | 0.00 | 0.00 | 0.00 | 54 | 1008.6 |
| 20260901112030 | 66 | 191 | 0.9 | 2.6 | 0.00 | 0.00 | 0.00 | 55 | 1008.5 |
| 20260901111025 | 67 | 185 | 0.9 | 1.7 | 0.00 | 0.00 | 0.00 | 54 | 1008.6 |
| 20260901110020 | 66 | 226 | 1.7 | 3.5 | 0.00 | 0.00 | 0.00 | 55 | 1008.6 |
| 20260901105016 | 65 | 205 | 0.9 | 1.7 | 0.00 | 0.00 | 0.00 | 57 | 1008.6 |
| 20260901104031 | 65 | 236 | 1.7 | 3.5 | 0.00 | 0.00 | 0.00 | 60 | 1008.6 |
| 20260901103046 | 64 | 170 | 1.7 | 3.5 | 0.00 | 0.00 | 0.00 | 61 | 1008.7 |
| 20260901102021 | 64 | 215 | 0.9 | 2.6 | 0.00 | 0.00 | 0.00 | 61 | 1008.7 |
| 20260901101016 | 64 | 232 | 2.6 | 5.2 | 0.00 | 0.00 | 0.00 | 63 | 1008.6 |
| 20260901100031 | 63 | 201 | 0.9 | 3.5 | 0.00 | 0.00 | 0.00 | 64 | 1008.5 |
| 20260901095108 | 63 | 239 | 2.6 | 6.1 | 0.00 | 0.00 | 0.00 | 65 | 1008.5 |
| 20260901094022 | 63 | 232 | 2.6 | 5.2 | 0.00 | 0.00 | 0.00 | 65 | 1008.4 |
| 20260901093017 | 63 | 226 | 2.6 | 6.1 | 0.00 | 0.00 | 0.00 | 63 | 1008.5 |
| 20260901092033 | 63 | 242 | 1.7 | 3.5 | 0.00 | 0.00 | 0.00 | 60 | 1008.4 |
| 20260901091028 | 61 | 271 | 2.6 | 5.2 | 0.00 | 0.00 | 0.00 | 64 | 1008.5 |
| 20260901090023 | 61 | 243 | 2.6 | 6.1 | 0.00 | 0.00 | 0.00 | 65 | 1008.5 |
| 20260901085043 | 61 | 231 | 2.6 | 3.5 | 0.00 | 0.00 | 0.00 | 71 | 1008.5 |
| 20260901084034 | 60 | 244 | 1.7 | 5.2 | 0.00 | 0.00 | 0.00 | 67 | 1008.6 |
| 20260901083029 | 60 | 255 | 2.6 | 6.1 | 0.00 | 0.00 | 0.00 | 69 | 1008.5 |
| 20260901082024 | 59 | 244 | 2.6 | 7.0 | 0.00 | 0.00 | 0.00 | 72 | 1008.5 |
| 20260901081019 | 60 | 248 | 1.7 | 5.2 | 0.00 | 0.00 | 0.00 | 70 | 1008.5 |
| 20260901080035 | 60 | 192 | 0.9 | 2.6 | 0.00 | 0.00 | 0.00 | 71 | 1008.5 |
| 20260901075030 | 59 | 226 | 1.7 | 3.5 | 0.00 | 0.00 | 0.00 | 72 | 1008.4 |
| 20260901074025 | 59 | 227 | 1.7 | 5.2 | 0.00 | 0.00 | 0.00 | 71 | 1008.5 |
| 20260901073020 | 58 | 248 | 1.7 | 6.1 | 0.00 | 0.00 | 0.00 | 76 | 1008.4 |
| 20260901072035 | 59 | 255 | 1.7 | 5.2 | 0.00 | 0.00 | 0.00 | 73 | 1008.3 |
| 20260901071051 | 58 | 262 | 2.6 | 7.0 | 0.00 | 0.00 | 0.00 | 74 | 1008.4 |
| 20260901070026 | 58 | 233 | 2.6 | 5.2 | 0.00 | 0.00 | 0.00 | 76 | 1008.3 |
| 20260901065022 | 58 | 177 | 1.7 | 6.1 | 0.00 | 0.00 | 0.00 | 78 | 1008.2 |
| 20260901064016 | 57 | 237 | 2.6 | 7.8 | 0.00 | 0.00 | 0.00 | 81 | 1008.1 |
| 20260901063032 | 56 | 256 | 3.5 | 6.1 | 0.00 | 0.00 | 0.00 | 85 | 1008.0 |
| 20260901062027 | 55 | 223 | 1.7 | 3.5 | 0.00 | 0.00 | 0.00 | 87 | 1008.1 |
| 20260901061023 | 55 | 230 | 1.7 | 2.6 | 0.00 | 0.00 | 0.00 | 90 | 1008.0 |
| 20260901060018 | 54 | 245 | 1.7 | 3.5 | 0.00 | 0.00 | 0.00 | 90 | 1007.9 |
| 20260901055115 | 54 | 226 | 0.9 | 3.5 | 0.00 | 0.00 | 0.00 | 91 | 1007.9 |
| 20260901054028 | 54 | 209 | 0.9 | 3.5 | 0.00 | 0.00 | 0.00 | 92 | 1007.7 |
| 20260901053044 | 53 | 218 | 0.9 | 2.6 | 0.00 | 0.00 | 0.00 | 94 | 1007.9 |
| 20260901052019 | 53 | 239 | 0.9 | 2.6 | 0.00 | 0.00 | 0.00 | 94 | 1007.8 |
| 20260901051034 | 53 | 223 | 0.9 | 1.7 | 0.00 | 0.00 | 0.00 | 95 | 1007.9 |
| 20260901050029 | 52 | 222 | 0.9 | 2.6 | 0.00 | 0.00 | 0.00 | 96 | 1007.9 |
| 20260901044538 | 52 | 231 | 0.9 | 2.6 | 0.00 | 0.00 | 0.00 | 98 | 1007.7 |
| 20260901043533 | 52 | 207 | 0.0 | 0.9 | 0.00 | 0.00 | 0.00 | 98 | 1007.6 |
| 20260901042528 | 52 | 223 | 0.9 | 2.6 | 0.00 | 0.01 | 0.00 | 99 | 1007.7 |
| 20260901041523 | 52 | 192 | 0.0 | 0.9 | 0.00 | 0.01 | 0.00 | 99 | 1007.6 |
| 20260901040538 | 52 | 195 | 0.0 | 0.9 | 0.00 | 0.01 | 0.00 | 99 | 1007.5 |
| 20260901035533 | 53 | 195 | 0.0 | 0.9 | 0.00 | 0.01 | 0.00 | 98 | 1007.5 |
| 20260901034610 | 53 | 206 | 0.0 | 1.7 | 0.00 | 0.02 | 0.00 | 98 | 1007.4 |
| 20260901033523 | 54 | 204 | 0.9 | 1.7 | 0.00 | 0.02 | 0.00 | 98 | 1007.3 |
| 20260901032539 | 54 | 212 | 0.9 | 1.7 | 0.00 | 0.02 | 0.00 | 97 | 1007.3 |
| 20260901031534 | 55 | 209 | 0.9 | 1.7 | 0.00 | 0.03 | 0.00 | 95 | 1007.3 |
| 20260901030529 | 55 | 213 | 0.9 | 2.6 | 0.00 | 0.03 | 0.00 | 96 | 1007.3 |
| 20260901025526 | 55 | 212 | 0.9 | 2.6 | 0.00 | 0.04 | 0.00 | 98 | 1007.1 |
| 20260901024541 | 55 | 219 | 0.9 | 2.6 | 0.00 | 0.04 | 0.00 | 99 | 1007.0 |
| 20260901023516 | 55 | 201 | 0.0 | 0.9 | 0.00 | 0.05 | 0.00 | 99 | 1007.0 |
| 20260901022532 | 55 | 206 | 0.9 | 0.9 | 0.00 | 0.05 | 0.00 | 99 | 1006.9 |
| 20260901021527 | 55 | 0.0 | 0.0 | 0.00 | 0.05 | 0.00 | 99 | 1006.7 | |
| 20260901020542 | 56 | 211 | 0.9 | 1.7 | 0.00 | 0.05 | 0.00 | 99 | 1006.6 |
| 20260901015518 | 55 | 203 | 0.0 | 1.7 | 0.00 | 0.05 | 0.00 | 99 | 1006.6 |
| 20260901014533 | 55 | 202 | 0.0 | 0.9 | 0.00 | 0.05 | 0.00 | 99 | 1006.5 |
| 20260901013528 | 55 | 0.0 | 0.0 | 0.00 | 0.05 | 0.00 | 98 | 1006.3 | |
| 20260901012544 | 56 | 0.0 | 0.0 | 0.00 | 0.05 | 0.00 | 98 | 1006.1 | |
| 20260901011519 | 56 | 229 | 0.9 | 2.6 | 0.00 | 0.05 | 0.00 | 98 | 1006.2 |
| 20260901010534 | 56 | 219 | 0.9 | 2.6 | 0.00 | 0.05 | 0.00 | 98 | 1006.1 |
| 20260901005550 | 56 | 228 | 1.7 | 2.6 | 0.00 | 0.05 | 0.00 | 98 | 1006.1 |
| 20260901004524 | 56 | 213 | 0.9 | 1.7 | 0.00 | 0.05 | 0.00 | 98 | 1006.0 |
| 20260901003519 | 56 | 224 | 0.9 | 2.6 | 0.00 | 0.05 | 0.00 | 98 | 1006.0 |
| 20260901002535 | 56 | 225 | 0.9 | 2.6 | 0.00 | 0.05 | 0.00 | 99 | 1006.1 |
| 20260901001531 | 56 | 219 | 0.9 | 1.7 | 0.00 | 0.05 | 0.00 | 99 | 1005.9 |
| 20260901000546 | 55 | 0.0 | 0.0 | 0.00 | 0.05 | 0.00 | 99 | 1005.8 | |
| 20260831235521 | 55 | 0.0 | 0.0 | 0.00 | 0.05 | 0.00 | 99 | 1005.9 | |
| 20260831234516 | 55 | 0.0 | 0.0 | 0.00 | 0.05 | 0.00 | 99 | 1005.8 | |
| 20260831233532 | 54 | 0.0 | 0.0 | 0.00 | 0.05 | 0.00 | 99 | 1005.9 | |
| 20260831232526 | 54 | 0.0 | 0.0 | 0.00 | 0.05 | 0.00 | 99 | 1005.8 | |
| 20260831231521 | 55 | 0.0 | 0.0 | 0.00 | 0.05 | 0.00 | 99 | 1005.8 | |
| 20260831230517 | 55 | 0.0 | 0.0 | 0.00 | 0.05 | 0.00 | 99 | 1005.8 | |
| 20260831225532 | 53 | 0.0 | 0.0 | 0.00 | 0.05 | 0.00 | 99 | 1005.7 | |
| 20260831224527 | 54 | 0.0 | 0.0 | 0.00 | 0.05 | 0.00 | 99 | 1005.7 | |
| 20260831223523 | 53 | 0.0 | 0.0 | 0.00 | 0.05 | 0.00 | 99 | 1005.6 | |
| 20260831222518 | 53 | 0.0 | 0.0 | 0.00 | 0.05 | 0.00 | 99 | 1005.7 | |
| 20260831221533 | 53 | 0.0 | 0.0 | 0.00 | 0.05 | 0.00 | 99 | 1005.6 |